Weather History for Fort Stockton, TX

Change the Weather History Date:

Tuesday, April 26, 2011

  Actual Average Record
Temperature  
Mean Temperature 76 °F -  
Max Temperature 93 °F 82 °F 98 °F (2012)
Min Temperature 61 °F 54 °F 42 °F (1997)
Cooling Degree Days 11    
Growing Degree Days 26 (Base 50)    
Moisture  
Dew Point 17 °F    
Average Humidity 11    
Maximum Humidity 22    
Minimum Humidity 4    
Precipitation  
Precipitation 0.00 in - - ()
Sea Level Pressure  
Sea Level Pressure 29.47 in    
Wind  
Wind Speed 14 mph (West)    
Max Wind Speed 34 mph    
Max Gust Speed 44 mph    
Visibility 8 miles    
Events      
Averages and records for this station are not official NWS values.
T = Trace of Precipitation, MM = Missing Value Source: NWS Daily Summary

Daily Weather History Graph

Daily Weather History Graph

Search for Another Location

Airport:

Trip Planner

Search our weather history database for the weather conditions in past years. The results will help you decide how hot, cold, wet, or windy it might be!

Date:

Astronomy

Apr. 26, 2011 Rise Set
Actual Time 7:12 AM CDT 8:26 PM CDT
Civil Twilight 6:47 AM CDT 8:52 PM CDT
Nautical Twilight 6:17 AM CDT 9:22 PM CDT
Astronomical Twilight 5:45 AM CDT 9:53 PM CDT
Moon 3:25 AM CDT (4/26) 2:56 PM CDT (4/26)
Length of Visible Light 14h 05m
Length of Day
13h 14m
Waning Crescent, 35% of the Moon is Illuminated
Apr 26
Waning Crescent
May 3
New
May 10
First Quarter
May 17
Full
May 24
Last Quarter

Hourly Weather History & Observations

Time (CDT) Temp. Dew Point Humidity Pressure Visibility Wind Dir Wind Speed Gust Speed Precip Events Conditions
12:53 AM 64.9 °F 17.1 °F 16% 29.57 in 10.0 mi SW 10.4 mph - N/A   Clear
1:53 AM 64.0 °F 18.0 °F 17% 29.55 in 10.0 mi SW 11.5 mph - N/A   Clear
2:53 AM 66.9 °F 19.0 °F 16% 29.52 in 10.0 mi SW 13.8 mph - N/A   Clear
3:53 AM 64.0 °F 18.0 °F 17% 29.52 in 10.0 mi SW 9.2 mph - N/A   Clear
4:53 AM 62.1 °F 19.0 °F 19% 29.53 in 10.0 mi SSW 10.4 mph - N/A   Clear
5:53 AM 62.1 °F 19.9 °F 20% 29.53 in 10.0 mi SW 9.2 mph - N/A   Clear
6:53 AM 61.0 °F 21.9 °F 22% 29.54 in 10.0 mi SSW 12.7 mph - N/A   Clear
8:53 AM 71.1 °F 26.1 °F 19% 29.54 in 10.0 mi SW 9.2 mph - N/A   Clear
9:53 AM 78.1 °F 28.0 °F 16% 29.52 in 10.0 mi WSW 8.1 mph - N/A   Clear
10:53 AM 82.0 °F 26.1 °F 13% 29.51 in 10.0 mi West 13.8 mph 21.9 mph N/A   Clear
11:53 AM 84.0 °F 23.0 °F 11% 29.50 in 10.0 mi WNW 9.2 mph 24.2 mph N/A   Clear
12:07 PM 84.2 °F 23.0 °F 11% 29.63 in 10.0 mi WNW 12.7 mph 26.5 mph N/A   Partly Cloudy
12:53 PM 87.1 °F 25.0 °F 10% 29.46 in 10.0 mi West 15.0 mph 20.7 mph N/A   Clear
1:53 PM 88.0 °F 19.9 °F 8% 29.44 in 9.0 mi West 23.0 mph 40.3 mph N/A   Partly Cloudy
2:53 PM 89.1 °F 18.0 °F 7% 29.41 in 8.0 mi WNW 23.0 mph 42.6 mph N/A   Mostly Cloudy
3:53 PM 90.0 °F 17.1 °F 7% 29.38 in 8.0 mi WNW 21.9 mph 32.2 mph N/A   Mostly Cloudy
4:53 PM 91.0 °F 15.1 °F 6% 29.35 in 10.0 mi WNW 20.7 mph 38.0 mph N/A   Partly Cloudy
5:53 PM 91.0 °F 9.0 °F 5% 29.33 in 5.0 mi WNW 34.5 mph 43.7 mph N/A   Haze
6:53 PM 90.0 °F 9.0 °F 5% 29.33 in 6.0 mi WNW 20.7 mph 35.7 mph N/A   Haze
7:53 PM 88.0 °F 9.0 °F 5% 29.35 in 6.0 mi WNW 23.0 mph 39.1 mph N/A   Haze
8:53 PM 84.9 °F 1.0 °F 4% 29.37 in 4.0 mi WNW 19.6 mph 28.8 mph N/A   Haze
9:53 PM 82.9 °F 1.9 °F 4% 29.40 in 4.0 mi WNW 13.8 mph 19.6 mph N/A   Haze
10:53 PM 82.9 °F 1.9 °F 4% 29.43 in 4.0 mi WNW 19.6 mph 31.1 mph N/A   Haze